When you browse on this site, cookies collect data to enhance your experience and personalize the content and advertising you see.
Visit our Privacy Policy to learn more. By continuing to use the site, you agree to this use of cookies and data.
  • In Hungary
  • List of Countries
  • For 7 days
  • Water Temperature
  • Satellite Maps
  • Weather Map
  • News
  • Weather Widgets
  • user-avatar
    Login

    Hourly Weather Spartak

    Today, 17 January, Thursday

    Time Temperature Precipitation Wind Pressure Humidity
    00:00 -5°C° 0.5 mm 4 mps 735 mmHg 95%
    01:00 -7°C° 0.3 mm 4 mps 735 mmHg 94%
    02:00 -8°C° 0.3 mm 4 mps 736 mmHg 93%
    03:00 -8°C° 0 mm 4 mps 737 mmHg 94%
    04:00 -9°C° 0 mm 4 mps 738 mmHg 94%
    05:00 -10°C° 0 mm 4 mps 739 mmHg 94%
    06:00 -11°C° 0 mm 4 mps 739 mmHg 94%
    07:00 -12°C° 0 mm 4 mps 740 mmHg 93%
    08:00 -12°C° 0 mm 4 mps 741 mmHg 92%
    09:00 -14°C° 0 mm 4 mps 742 mmHg 91%
    10:00 -12°C° 0 mm 4 mps 742 mmHg 91%
    11:00 -12°C° 0 mm 4 mps 742 mmHg 90%
    12:00 -11°C° 0 mm 4 mps 743 mmHg 89%
    13:00 -11°C° 0 mm 4 mps 743 mmHg 89%
    14:00 -11°C° 0 mm 4 mps 743 mmHg 89%
    15:00 -9°C° 0 mm 3 mps 743 mmHg 90%
    16:00 -9°C° 0 mm 3 mps 743 mmHg 90%
    17:00 -10°C° 0 mm 4 mps 743 mmHg 91%
    18:00 -11°C° 0 mm 4 mps 744 mmHg 91%
    19:00 -11°C° 0 mm 4 mps 743 mmHg 91%
    20:00 -11°C° 0 mm 4 mps 743 mmHg 91%
    21:00 -11°C° 0 mm 4 mps 743 mmHg 91%
    22:00 -11°C° 0 mm 5 mps 743 mmHg 90%
    23:00 -11°C° 0 mm 5 mps 742 mmHg 89%

    Tomorrow, 18 January, Friday

    Time Temperature Precipitation Wind Pressure Humidity
    00:00 -11°C° 0 mm 5 mps 742 mmHg 89%
    01:00 -11°C° 0 mm 6 mps 742 mmHg 89%
    02:00 -11°C° 0 mm 6 mps 741 mmHg 89%
    03:00 -11°C° 0 mm 6 mps 741 mmHg 89%
    04:00 -10°C° 0.5 mm 6 mps 740 mmHg 89%
    05:00 -10°C° 0.5 mm 6 mps 740 mmHg 90%
    06:00 -9°C° 0.5 mm 6 mps 739 mmHg 91%
    07:00 -9°C° 0.3 mm 6 mps 739 mmHg 90%
    08:00 -8°C° 0.3 mm 6 mps 739 mmHg 89%
    09:00 -7°C° 0.3 mm 7 mps 739 mmHg 87%
    10:00 -6°C° 0.2 mm 6 mps 739 mmHg 87%
    11:00 -5°C° 0.2 mm 6 mps 739 mmHg 87%
    12:00 -5°C° 0.2 mm 6 mps 739 mmHg 86%
    13:00 -4°C° 0 mm 6 mps 740 mmHg 86%
    14:00 -4°C° 0 mm 6 mps 740 mmHg 86%
    15:00 -3°C° 0 mm 6 mps 741 mmHg 86%
    16:00 -2°C° 0.1 mm 5 mps 741 mmHg 87%
    17:00 -2°C° 0.1 mm 5 mps 742 mmHg 88%
    18:00 -2°C° 0.1 mm 5 mps 742 mmHg 89%
    19:00 -4°C° 0 mm 5 mps 742 mmHg 89%
    20:00 -3°C° 0 mm 4 mps 743 mmHg 90%
    21:00 -4°C° 0 mm 4 mps 743 mmHg 90%
    22:00 -4°C° 0 mm 4 mps 743 mmHg 91%
    23:00 -5°C° 0 mm 4 mps 742 mmHg 92%

    Day after tomorrow, 19 January, Saturday

    Time Temperature Precipitation Wind Pressure Humidity
    00:00 -5°C° 0 mm 4 mps 742 mmHg 93%
    01:00 -5°C° 0 mm 4 mps 742 mmHg 92%
    02:00 -5°C° 0 mm 5 mps 742 mmHg 92%
    03:00 -4°C° 0 mm 5 mps 742 mmHg 91%
    04:00 -4°C° 0.3 mm 6 mps 741 mmHg 91%
    05:00 -4°C° 0.3 mm 6 mps 740 mmHg 90%
    06:00 -4°C° 0.3 mm 7 mps 739 mmHg 90%
    07:00 -3°C° 0.2 mm 7 mps 739 mmHg 89%
    08:00 -3°C° 0.2 mm 6 mps 739 mmHg 89%
    09:00 -2°C° 0.2 mm 6 mps 739 mmHg 88%
    10:00 -2°C° 0.1 mm 6 mps 740 mmHg 89%
    11:00 -1°C° 0.1 mm 5 mps 740 mmHg 90%
    12:00 -1°C° 0.1 mm 5 mps 741 mmHg 90%
    13:00 -2°C° 0.2 mm 4 mps 741 mmHg 90%
    14:00 -3°C° 0.2 mm 4 mps 742 mmHg 90%
    15:00 -2°C° 0.2 mm 3 mps 742 mmHg 90%
    16:00 -5°C° 0 mm 3 mps 742 mmHg 91%
    17:00 -7°C° 0 mm 2 mps 743 mmHg 91%
    18:00 -9°C° 0 mm 2 mps 743 mmHg 91%
    19:00 -10°C° 0 mm 2 mps 743 mmHg 92%
    20:00 -12°C° 0 mm 2 mps 744 mmHg 92%
    21:00 -14°C° 0 mm 2 mps 744 mmHg 92%
    22:00 -14°C° 0 mm 2 mps 744 mmHg 93%
    23:00 -15°C° 0 mm 2 mps 745 mmHg 95%

    20 January, Sunday

    Time Temperature Precipitation Wind Pressure Humidity
    00:00 -14°C° 0 mm 1 mps 745 mmHg 96%
    01:00 -16°C° 0 mm 2 mps 745 mmHg 96%
    02:00 -17°C° 0 mm 2 mps 746 mmHg 97%
    03:00 -17°C° 0 mm 2 mps 746 mmHg 97%
    04:00 -16°C° 0 mm 2 mps 746 mmHg 97%
    05:00 -16°C° 0 mm 2 mps 746 mmHg 97%
    06:00 -15°C° 0 mm 2 mps 746 mmHg 97%
    07:00 -14°C° 0 mm 2 mps 746 mmHg 96%
    08:00 -15°C° 0 mm 3 mps 746 mmHg 95%
    09:00 -14°C° 0 mm 3 mps 747 mmHg 95%
    10:00 -13°C° 0 mm 3 mps 747 mmHg 93%
    11:00 -12°C° 0 mm 4 mps 747 mmHg 91%
    12:00 -11°C° 0 mm 4 mps 747 mmHg 90%
    13:00 -11°C° 0 mm 4 mps 747 mmHg 89%
    14:00 -10°C° 0 mm 4 mps 747 mmHg 88%
    15:00 -9°C° 0 mm 3 mps 747 mmHg 87%
    16:00 -10°C° 0 mm 3 mps 747 mmHg 89%
    17:00 -12°C° 0 mm 4 mps 747 mmHg 91%
    18:00 -14°C° 0 mm 4 mps 747 mmHg 93%
    19:00 -14°C° 0 mm 4 mps 747 mmHg 93%
    20:00 -12°C° 0 mm 4 mps 747 mmHg 92%
    21:00 -12°C° 0 mm 4 mps 747 mmHg 92%
    22:00 -12°C° 0.2 mm 4 mps 747 mmHg 91%
    23:00 -11°C° 0.2 mm 4 mps 747 mmHg 91%

    21 January, Monday

    Time Temperature Precipitation Wind Pressure Humidity
    00:00 -12°C° 0.2 mm 5 mps 746 mmHg 90%
    01:00 -12°C° 0.2 mm 5 mps 746 mmHg 90%
    02:00 -12°C° 0.2 mm 5 mps 746 mmHg 90%
    03:00 -12°C° 0.2 mm 5 mps 746 mmHg 90%
    04:00 -12°C° 0.1 mm 5 mps 746 mmHg 90%
    05:00 -12°C° 0.1 mm 5 mps 746 mmHg 89%
    06:00 -12°C° 0.1 mm 5 mps 745 mmHg 89%
    07:00 -12°C° 0.1 mm 5 mps 746 mmHg 89%
    08:00 -12°C° 0.1 mm 5 mps 746 mmHg 90%
    09:00 -12°C° 0.1 mm 5 mps 746 mmHg 90%
    10:00 -11°C° 0.1 mm 5 mps 746 mmHg 90%
    11:00 -10°C° 0.1 mm 4 mps 746 mmHg 90%
    12:00 -9°C° 0.1 mm 4 mps 746 mmHg 90%
    13:00 -10°C° 0.2 mm 4 mps 746 mmHg 91%
    14:00 -10°C° 0.2 mm 4 mps 746 mmHg 91%
    15:00 -11°C° 0.2 mm 4 mps 746 mmHg 92%
    16:00 -11°C° 0.2 mm 4 mps 746 mmHg 92%
    17:00 -12°C° 0.2 mm 3 mps 745 mmHg 93%
    18:00 -13°C° 0.2 mm 3 mps 745 mmHg 93%
    19:00 -12°C° 0.2 mm 3 mps 745 mmHg 94%
    20:00 -12°C° 0.2 mm 3 mps 745 mmHg 94%
    21:00 -10°C° 0.2 mm 2 mps 744 mmHg 95%
    22:00 -10°C° 0.2 mm 2 mps 744 mmHg 96%
    23:00 -10°C° 0.2 mm 2 mps 744 mmHg 96%

    22 January, Tuesday

    Time Temperature Precipitation Wind Pressure Humidity
    00:00 -9°C° 0.2 mm 1 mps 744 mmHg 97%
    01:00 -9°C° 0.1 mm 1 mps 743 mmHg 97%
    02:00 -9°C° 0.1 mm 1 mps 743 mmHg 97%
    03:00 -9°C° 0.1 mm 1 mps 743 mmHg 97%
    04:00 -10°C° 0.1 mm 1 mps 743 mmHg 97%
    05:00 -10°C° 0.1 mm 1 mps 742 mmHg 97%
    06:00 -12°C° 0.1 mm 2 mps 742 mmHg 98%
    07:00 -13°C° 0 mm 2 mps 742 mmHg 97%
    08:00 -15°C° 0 mm 3 mps 742 mmHg 96%
    09:00 -16°C° 0 mm 3 mps 742 mmHg 96%
    10:00 -17°C° 0 mm 3 mps 743 mmHg 95%
    11:00 -18°C° 0 mm 3 mps 743 mmHg 95%
    12:00 -19°C° 0 mm 3 mps 743 mmHg 95%
    13:00 -19°C° 0 mm 3 mps 743 mmHg 94%
    14:00 -21°C° 0 mm 3 mps 744 mmHg 94%
    15:00 -21°C° 0 mm 3 mps 744 mmHg 94%
    16:00 -22°C° 0 mm 3 mps 744 mmHg 95%
    17:00 -23°C° 0 mm 3 mps 745 mmHg 95%
    18:00 -24°C° 0 mm 3 mps 745 mmHg 96%
    19:00 -24°C° 0 mm 3 mps 746 mmHg 96%
    20:00 -25°C° 0 mm 3 mps 746 mmHg 96%
    21:00 -25°C° 0 mm 3 mps 746 mmHg 96%
    22:00 -26°C° 0 mm 3 mps 747 mmHg 97%
    23:00 -26°C° 0 mm 3 mps 747 mmHg 97%
    Show more